[[{"header":{"parameterUnit":"m.s-1","parameterCategory":1,"la1":30.2991,"la2":30.254,"lo1":-89.0895,"lo2":-89.0444,"dy":0.0017,"dx":0.0017,"nx":28,"ny":28,"refTime":"2025-06-10T21:00:00:Z","depth":0,"parameterNumber":2,"parameterNumberName":"U-component_of_WINDS"},"data":[0,0,0,0,0,0,0,0,0,0,0,0,0,0,0,0,0,0,0,0,0,0,0,0,0,0,0,0,0,0,0,0,0,0,0,0,0,0,0,0,0,0,0,0,0,0,0,0,0,0,0,0,0,0,0,0,0,0,0.0002,0.0001,0,-0.0111,-0.0112,-0.0113,-0.0252,-0.0254,-0.0256,-0.0258,-0.0367,-0.0368,-0.0369,0,0,0,0,0,0,0,0,0,0,0,0,0,0.0105,0.0104,0.0002,0.0001,-0.0001,-0.0111,-0.0112,-0.0114,-0.0251,-0.0254,-0.0257,-0.0259,-0.0367,-0.0368,-0.0369,0,0,0,0,0,0,0,0,0,0,0,0,0,0.0034,0.0104,0.0003,-0.0083,-0.0091,-0.011,-0.0112,-0.0114,-0.0251,-0.0254,-0.0257,-0.026,-0.0367,-0.0368,-0.0369,-0.0311,0,0,-0.0373,-0.0374,0,0,0,0,0,0,0,0,0.0038,0.003,-0.0069,-0.0077,-0.0087,-0.0171,-0.0116,-0.018,-0.025,-0.019,-0.0258,-0.0262,-0.0299,-0.0306,-0.032,-0.0317,-0.0321,-0.0373,-0.0374,-0.0375,-0.0375,0,0,0,0,0,0,0,0.0043,0.0034,-0.0042,-0.007,-0.0081,-0.0113,-0.0127,-0.0129,-0.0224,-0.0196,-0.0206,-0.0218,-0.0304,-0.0318,-0.0323,-0.0323,-0.0373,-0.0374,-0.0375,-0.0376,-0.0276,-0.0273,0,0,0,0,0,0,0.006,0.0039,-0.0039,-0.0046,-0.0031,-0.0112,-0.0128,-0.014,-0.0225,-0.0241,-0.0215,-0.0224,-0.0314,-0.0322,-0.0328,-0.0264,-0.0375,-0.0376,-0.0377,-0.0279,-0.0275,-0.0272,0,0,0,0,0,0,0.0063,0.0054,-0.0034,-0.0006,-0.002,-0.0111,-0.0123,-0.0141,-0.0155,-0.024,-0.0257,-0.0212,-0.0317,-0.0326,-0.0315,-0.027,-0.0376,-0.0378,-0.0283,-0.0278,-0.0273,-0.0137,0,0,0,0,0,0,0.0066,0.0056,0.0076,-0.0005,-0.0021,-0.0021,-0.0121,-0.0141,-0.0158,-0.017,-0.0241,-0.0256,-0.032,-0.0312,-0.0316,-0.0273,-0.0379,-0.0288,-0.0281,-0.0275,-0.0146,-0.0128,-0.0112,0,0,0,0,0,0.007,0.012,0.0077,0.0069,0.0001,-0.0018,-0.0027,-0.0104,-0.0153,-0.0133,-0.0188,-0.0254,-0.0274,-0.0309,-0.0315,-0.0272,-0.0291,-0.0283,-0.0276,-0.0153,-0.0131,-0.0113,0,0,0,0,0,0,0.021,0.0107,0.0059,0.0083,0.0042,-0.0041,-0.0019,-0.0079,-0.0105,-0.0115,-0.0208,-0.0223,-0.0199,-0.0236,-0.0273,-0.022,-0.0292,-0.0285,-0.0197,-0.0177,-0.0161,-0.0151,-0.038,0,0,0,0,0,0.0243,0.0234,0.0145,0.0176,0.0157,0.0073,0.0062,0.0006,-0.004,-0.0057,-0.0111,-0.015,-0.0166,-0.0174,-0.0193,-0.0152,-0.0168,-0.0126,-0.0109,-0.0095,-0.0087,-0.0065,-0.0047,-0.0246,-0.0246,-0.0246,0,0,0.0312,0.0255,0.0255,0.0202,0.0163,0.0159,0.006,0.0058,0.0054,-0.0057,-0.0049,-0.009,-0.014,-0.0113,-0.0104,-0.0142,-0.0035,-0.0085,-0.0073,-0.0073,-0.0056,-0.0036,-0.002,-0.0241,-0.0242,-0.0243,0,0,0.0436,0.0391,0.0411,0.0375,0.0317,0.026,0.0266,0.0191,0.016,0.0165,0.0082,0.0077,0.0051,0.0019,0.0,0.0112,0.0052,0.0109,0.0197,0.0219,0.0235,0.0249,0.0291,0.0307,0.0117,0.0117,0.0117,0,0.053,0.0517,0.043,0.0434,0.0414,0.0311,0.0333,0.0302,0.0243,0.0232,0.0189,0.0156,0.0115,0.0134,0.0161,0.0148,0.0154,0.0118,0.0239,0.0252,0.0263,0.0303,0.0319,0.0124,0.0124,0.0123,0.0122,0,0.0637,0.0629,0.0653,0.0596,0.0579,0.0592,0.051,0.0503,0.0448,0.0398,0.0406,0.0352,0.0322,0.0321,0.0269,0.0334,0.0312,0.0256,0.0182,0.0291,0.0327,0.0342,0.0135,0.0132,0.013,0.0128,0,0,0.0846,0.0741,0.0751,0.0725,0.0654,0.0647,0.0657,0.0624,0.0622,0.0584,0.0591,0.0572,0.0519,0.0498,0.044,0.0459,0.0555,0.04,0.0398,0.0434,0.0626,0.0671,0.069,0.0513,0.0516,0.0518,0.0631,0,0.0959,0.0967,0.089,0.092,0.0913,0.0816,0.0824,0.0783,0.0736,0.0725,0.0673,0.0663,0.0592,0.0579,0.0593,0.0541,0.0593,0.0531,0.0523,0.0523,0.0541,0.0708,0.0755,0.0866,0.0645,0.0647,0.0649,0,0.1092,0.106,0.1089,0.1017,0.1012,0.1021,0.0986,0.0976,0.0928,0.0892,0.0868,0.0802,0.0809,0.0737,0.0746,0.0706,0.0698,0.0672,0.0674,0.0673,0.0595,0.0714,0.0898,0.0917,0.0669,0.0668,0.0666,0,0.1245,0.1209,0.1222,0.1203,0.1119,0.1128,0.1094,0.1042,0.1028,0.0998,0.0989,0.0961,0.0947,0.0928,0.0857,0.081,0.0876,0.0797,0.085,0.0852,0.087,0.087,0.1059,0.0861,0.086,0.086,0.086,0,0.138,0.1403,0.129,0.1299,0.1322,0.1234,0.126,0.1216,0.1171,0.1172,0.1085,0.1088,0.0993,0.0986,0.0931,0.0949,0.0942,0.0916,0.0902,0.0925,0.0929,0.0921,0.0913,0.0864,0.0863,0.0863,0.0862,0,0.1557,0.1482,0.149,0.141,0.139,0.1411,0.1343,0.1349,0.1296,0.1298,0.1293,0.1212,0.1199,0.1125,0.1096,0.1059,0.1098,0.1067,0.1114,0.1105,0.1163,0.116,0.1354,0.1377,0.1163,0.1165,0.1166,0,0.1649,0.1664,0.1585,0.1578,0.1547,0.1537,0.1522,0.1436,0.1425,0.1372,0.1385,0.1364,0.1344,0.1328,0.1268,0.1246,0.1215,0.1285,0.1212,0.1236,0.122,0.1221,0.1224,0.1302,0.1305,0.1307,0.1309,0,0.1822,0.1785,0.1765,0.1734,0.1718,0.1689,0.1656,0.1656,0.1561,0.1553,0.1537,0.1521,0.1491,0.1473,0.144,0.1407,0.1345,0.1332,0.1343,0.1369,0.1397,0.1386,0.116,0.1329,0.1327,0.1325,0.1324,0.1323,0.1961,0.197,0.1917,0.1899,0.1864,0.1835,0.1837,0.1784,0.1769,0.1736,0.1686,0.1679,0.1632,0.1581,0.1554,0.1549,0.1512,0.1528,0.1532,0.1538,0.1552,0.1396,0.1542,0.1541,0.1541,0.154,0.154,0,0.2132,0.2092,0.2076,0.2032,0.2018,0.1956,0.1916,0.191,0.1904,0.1864,0.1846,0.183,0.1812,0.175,0.1727,0.1735,0.1705,0.1732,0.1732,0.1726,0.1585,0.1578,0.1756,0.1756,0.1756,0.1756,0.1756,0.1756,0.222,0.2233,0.2189,0.2186,0.2146,0.2136,0.2119,0.2093,0.2061,0.2046,0.2031,0.1989,0.1942,0.1914,0.1896,0.1879,0.1876,0.1913,0.1886,0.1756,0.1736,0.1716,0.171,0.1912,0.1912,0.2028,0.2029,0.203]},{"header":{"parameterUnit":"m.s-1","parameterCategory":1,"la1":30.2991,"la2":30.254,"lo1":-89.0895,"lo2":-89.0444,"dy":0.0017,"dx":0.0017,"nx":28,"ny":28,"refTime":"2025-06-10T21:00:00:Z","depth":0,"parameterNumber":3,"parameterNumberName":"V-component_of_WINDS"},"data":[0,0,0,0,0,0,0,0,0,0,0,0,0,0,0,0,0,0,0,0,0,0,0,0,0,0,0,0,0,0,0,0,0,0,0,0,0,0,0,0,0,0,0,0,0,0,0,0,0,0,0,0,0,0,0,0,0,0,1.2028,1.2028,0,1.2045,1.2045,1.2045,1.2038,1.2037,1.2037,1.2037,1.2056,1.2057,1.2058,0,0,0,0,0,0,0,0,0,0,0,0,0,1.1992,1.1993,1.2028,1.2029,1.2029,1.2045,1.2045,1.2045,1.2038,1.2037,1.2037,1.2036,1.2056,1.2057,1.2058,0,0,0,0,0,0,0,0,0,0,0,0,0,1.2008,1.1993,1.2028,1.2027,1.2027,1.2045,1.2045,1.2045,1.2038,1.2037,1.2037,1.2036,1.2056,1.2057,1.2058,1.2079,0,0,1.2062,1.2063,0,0,0,0,0,0,0,0,1.2007,1.201,1.2027,1.2027,1.2027,1.2039,1.204,1.2057,1.2038,1.2034,1.2037,1.2036,1.2051,1.2053,1.2057,1.208,1.2081,1.2063,1.2063,1.2064,1.2064,0,0,0,0,0,0,0,1.2006,1.2009,1.2035,1.2027,1.2027,1.2026,1.2028,1.2043,1.2046,1.2034,1.2034,1.2036,1.2051,1.2056,1.2058,1.2081,1.2063,1.2064,1.2065,1.2065,1.2123,1.2123,0,0,0,0,0,0,1.2005,1.2008,1.2034,1.2035,1.2015,1.2027,1.2029,1.2036,1.2046,1.2047,1.2036,1.2035,1.2054,1.2056,1.2058,1.2084,1.2064,1.2065,1.2066,1.2122,1.2123,1.2124,0,0,0,0,0,0,1.2004,1.2007,1.2034,1.2022,1.2025,1.2029,1.2036,1.2036,1.2041,1.2047,1.2048,1.2041,1.2054,1.2056,1.2074,1.2085,1.2066,1.2067,1.2121,1.2122,1.2123,1.2136,0,0,0,0,0,0,1.2003,1.2007,1.2015,1.2022,1.2025,1.2048,1.2037,1.2037,1.2043,1.2042,1.2051,1.2052,1.2053,1.2072,1.2075,1.2086,1.2068,1.212,1.2122,1.2123,1.2134,1.2137,1.2139,0,0,0,0,0,1.2002,1.2018,1.2015,1.2018,1.2035,1.2049,1.2051,1.2051,1.2044,1.2052,1.2056,1.2052,1.2083,1.2074,1.2078,1.2089,1.212,1.2121,1.2123,1.2133,1.2136,1.2139,0,0,0,0,0,0,1.2013,1.2019,1.2016,1.2035,1.2041,1.2048,1.2058,1.2055,1.2064,1.2063,1.2063,1.2065,1.2084,1.2088,1.2078,1.211,1.21,1.2103,1.2107,1.211,1.2112,1.2112,1.2069,0,0,0,0,0,1.2018,1.2028,1.2033,1.2049,1.2052,1.2054,1.2061,1.206,1.2067,1.207,1.2075,1.2083,1.2095,1.2102,1.2113,1.2134,1.2137,1.2144,1.2147,1.2149,1.2151,1.2164,1.2167,1.2129,1.2129,1.2129,0,0,1.2028,1.2032,1.2039,1.2051,1.2056,1.2068,1.2057,1.2069,1.2078,1.2072,1.2089,1.2093,1.2102,1.2122,1.2131,1.2126,1.2162,1.2151,1.2152,1.2154,1.2166,1.2169,1.2172,1.213,1.213,1.213,0,0,1.2051,1.2055,1.2069,1.2074,1.2082,1.2083,1.2086,1.2093,1.2095,1.2112,1.2108,1.2118,1.2138,1.2145,1.2151,1.2176,1.2174,1.218,1.2193,1.2205,1.2208,1.2211,1.2221,1.2225,1.2182,1.2182,1.2182,0,1.2063,1.2079,1.2077,1.209,1.2096,1.209,1.2104,1.211,1.2121,1.2125,1.2119,1.2144,1.2149,1.2171,1.2177,1.2181,1.2186,1.2179,1.2208,1.221,1.2213,1.2223,1.2227,1.2183,1.2183,1.2182,1.2182,0,1.2093,1.2105,1.2115,1.2125,1.2132,1.2146,1.2146,1.2154,1.2152,1.2154,1.2171,1.2178,1.219,1.2195,1.2193,1.2216,1.2213,1.2207,1.2198,1.2217,1.2227,1.223,1.2184,1.2183,1.2183,1.2183,0,0,1.2126,1.2134,1.2138,1.2142,1.215,1.2159,1.2172,1.2183,1.219,1.2197,1.221,1.2226,1.2221,1.2227,1.2227,1.2237,1.2258,1.223,1.2231,1.2237,1.2285,1.229,1.2294,1.2256,1.2256,1.2257,1.2285,0,1.2151,1.2174,1.2172,1.2194,1.2205,1.2199,1.2211,1.2217,1.2219,1.223,1.2232,1.2244,1.2236,1.224,1.225,1.2254,1.2268,1.2251,1.2269,1.2269,1.2268,1.2299,1.2305,1.233,1.2288,1.2289,1.2289,0,1.2184,1.2192,1.2215,1.222,1.2225,1.2236,1.2246,1.2255,1.2262,1.2263,1.227,1.2268,1.2282,1.2271,1.2292,1.228,1.2287,1.229,1.2291,1.2294,1.2281,1.2304,1.2338,1.2343,1.2295,1.2294,1.2294,0,1.2207,1.2223,1.2239,1.2243,1.225,1.2257,1.2261,1.2267,1.2274,1.2283,1.2287,1.2298,1.2304,1.2313,1.2314,1.2305,1.2335,1.2324,1.2338,1.2338,1.2346,1.2346,1.2383,1.2347,1.2347,1.2347,1.2347,0,1.2236,1.2251,1.225,1.226,1.2276,1.2273,1.229,1.2293,1.2298,1.2309,1.2304,1.2315,1.2315,1.2326,1.2327,1.2345,1.2347,1.2349,1.235,1.2351,1.2351,1.2356,1.2355,1.2348,1.2348,1.2348,1.2348,0,1.2266,1.2265,1.2282,1.2287,1.2288,1.23,1.2304,1.2314,1.2315,1.2329,1.2333,1.2335,1.2348,1.2349,1.2364,1.2365,1.2387,1.2384,1.2384,1.2384,1.2399,1.2398,1.2443,1.2449,1.2408,1.2408,1.2409,0,1.2285,1.2296,1.2301,1.2308,1.2311,1.2322,1.2329,1.2327,1.2334,1.2342,1.2352,1.2364,1.2373,1.2394,1.2398,1.241,1.2409,1.2424,1.2411,1.2412,1.2411,1.2411,1.2413,1.2427,1.2427,1.2428,1.2428,0,1.232,1.2319,1.2328,1.2337,1.2345,1.2352,1.2359,1.2365,1.2364,1.2372,1.2384,1.2392,1.2407,1.242,1.2431,1.2436,1.2432,1.2432,1.2436,1.2438,1.2438,1.2439,1.2393,1.2431,1.2431,1.2431,1.243,1.243,1.2346,1.2355,1.2361,1.2371,1.2376,1.2382,1.2392,1.2393,1.2403,1.2415,1.2413,1.2427,1.2435,1.2449,1.2455,1.2467,1.2462,1.2468,1.2469,1.2471,1.2473,1.2434,1.2469,1.2468,1.2468,1.2468,1.2468,0,1.2382,1.2384,1.2394,1.2403,1.2411,1.2405,1.2413,1.2421,1.2433,1.2439,1.2448,1.2463,1.2475,1.2479,1.2492,1.25,1.2499,1.2504,1.2504,1.2506,1.2476,1.2472,1.2505,1.2505,1.2505,1.2505,1.2505,1.2505,1.2401,1.2418,1.2417,1.2436,1.2439,1.2452,1.2457,1.2463,1.2468,1.2484,1.2494,1.2496,1.2502,1.2514,1.2525,1.2526,1.2532,1.2538,1.2538,1.2511,1.2508,1.2504,1.25,1.2538,1.2538,1.2567,1.2567,1.2567]}]]